Regional Weather Roundup
Issued by NWS Sterling, VA

Home | Current Version | Previous Version | Graphics & Text | Print | Product List | Glossary On
Versions: 1 2 3 4 5 6 7 8 9 10 11 12 13 14 15 16 17 18 19 20 21 22 23 24 25 26 27 28 29 30 31 32 33 34 35 36 37 38 39 40 41 42 43 44 45 46 47 48 49 50
000
ASUS41 KLWX 290010
RWRLWX

REGIONAL WEATHER ROUNDUP
NATIONAL WEATHER SERVICE BALTIMORE MD/WASHINGTON DC
800 PM EDT SAT MAR 28 2015

Note: "FAIR" indicates few or no clouds below 12,000 feet
with no significant weather and/or obstructions to visibility.
 TC=TEMPERATURE CELSIUS

 * =Non NWS site. Station does not report precipitation (e.g. rain,
    snow, etc.), thunder, or fog.

DCZ001-MDZ009-015-VAZ040>042-051-053>054-290100-
WASHINGTON METRO

CITY           SKY/WX    TMP DP  RH WIND       PRES   REMARKS
WASHINGTON NAT CLOUDY    34  10  37 NW15G21   30.17R WCI  24
DULLES         MOCLDY    30   7  37 NW17G23   30.16R WCI  18
ANDREWS AFB    MOCLDY    31   9  39 NW14      30.14R WCI  20
FT BELVOIR     CLOUDY    33   8  35 NW13G21   30.17R WCI  23
QUANTICO       CLOUDY    34   7  32 N13G25    30.19R WCI  25
COLLEGE PARK*  MOCLDY    32  10  40 NW10G18   30.16R WCI  24
LEESBURG*      MOCLDY    32  10  40 NW16G24   30.18R WCI  21
MANASSAS*      CLOUDY    30  10  43 NW16G23   30.17R WCI  19
GAITHERSBURG*  PTCLDY    28   9  43 NW12G24   30.18R WCI  18

$$

MDZ006>007-011-014-290100-
BALTIMORE METRO

CITY           SKY/WX    TMP DP  RH WIND       PRES   REMARKS
BWI AIRPORT    PTCLDY    30   8  39 NW10      30.13R WCI  21
MD SCIENCE CTR   N/A     32   7  35 MISG      30.12R
MARTIN STATE   MOCLDY    32  12  43 W22G30    30.15R WCI  19
ANNAPOLIS      PTCLDY    32  10  40 NW14G22   30.14R WCI  22

$$

MDZ012-015-019>023-290100-
MARYLAND EASTERN SHORE

CITY           SKY/WX    TMP DP  RH WIND       PRES   REMARKS
OCEAN CITY     MOCLDY    30  20  66 NW12G20   30.11R WCI  20
SALISBURY      CLOUDY    32  19  58 NW20      30.12R WCI  20
BAY BRIDGE AP*   N/A     32  10  40 NW22G29   30.13R WCI  19
CAMBRIDGE*     PTCLDY    36  18  48 NW16G25   30.12R WCI  26
EASTON*        CLEAR     32  18  55 NW16G29   30.15R WCI  21

$$

MDZ017>025-290100-
SOUTHERN MARYLAND

CITY           SKY/WX    TMP DP  RH WIND       PRES   REMARKS
PATUXENT RIVER PTCLDY    32   9  38 W13G20    30.14R WCI  22
ST INIGOES     CLEAR     32  10  40 NW9       30.14R WCI  24
LEONARDTOWN*   PTCLDY    32   9  37 W7        30.16R

$$

MDZ003>005-290100-
NORTH CENTRAL MARYLAND

CITY           SKY/WX    TMP DP  RH WIND       PRES   REMARKS
FREDERICK*     CLEAR     30   7  37 NW9       30.19R WCI  22
HAGERSTOWN APT CLEAR     27   9  46 W15       30.14R WCI  15
WESTMINSTER*   PTCLDY    28   3  34 W12G18    30.10R WCI  18

$$

MDZ501>502-290100-
WESTERN MARYLAND

CITY           SKY/WX    TMP DP  RH WIND       PRES   REMARKS
OAKLAND*       CLEAR     19   9  63 NW10G18   30.04R WCI   8
CUMBERLAND*    CLEAR     30   5  34 NW10G16   30.22R WCI  21

$$

VAZ025>031-290100-
SHENANDOAH VALLEY

CITY           SKY/WX    TMP DP  RH WIND       PRES   REMARKS
WINCHESTER*    PTCLDY    30   1  29 NW8G17    30.16R WCI  23
FRONT ROYAL*   CLOUDY    30   9  40 NW3       30.15R
LURAY*         FAIR      32  12  43 NW8       30.16R WCI  25
NEW MARKET*    FAIR      28   7  40 W5        30.16R
STAUNTON*      CLEAR     28   7  40 NW12      30.17R WCI  18
WAYNESBORO*    FAIR      27   6  41 NW10G21   30.14R WCI  17

$$

WVZ021-048>050-054>055-290100-
EASTERN WEST VIRGINIA PANHANDLE

CITY           SKY/WX    TMP DP  RH WIND       PRES   REMARKS
MARTINSBURG    CLEAR     29   4  34 NW14      30.17R WCI  18
PETERSBURG*    CLEAR     29   7  38 W7        30.19R

$$

VAZ036>039-050-290100-
CENTRAL FOOTHILLS

CITY           SKY/WX    TMP DP  RH WIND       PRES   REMARKS
CHARLOTTESVILL CLEAR     31   6  35 NW9G16    30.17R WCI  23
CULPEPER*      PTCLDY    34   7  32 NW8       30.18R WCI  27
ORANGE*        PTCLDY    32  10  40 CALM      30.18R
GORDONSVILLE*  FAIR      32   6  34 CALM      30.16R
WARRENTON*     FAIR      32  15  50 NW13G18   30.17R WCI  22

$$

VAZ055>057-290100-
NORTH AND CENTRAL PIEDMONT

CITY           SKY/WX    TMP DP  RH WIND       PRES   REMARKS
FREDERICKSBRG* PTCLDY    33   9  36 NW9       30.17R WCI  25
STAFFORD*      MOCLDY    31   6  34 NW13G21   30.21R WCI  21

$$

NCZ024-NYZ072-PAZ021-071-VAZ022-071-290100-
OTHER REGIONAL OBSERVATIONS

CITY           SKY/WX    TMP DP  RH WIND       PRES   REMARKS
NEW YORK CITY  CLOUDY    33  18  53 VRB6G18   30.02R
PHILADELPHIA   PTCLDY    33  11  39 NW22      30.08R WCI  21
PITTSBURGH     PTCLDY    25   5  42 NW12      30.21R WCI  14
ROANOKE        CLEAR     32   4  30 NW10      30.18R WCI  24
RICHMOND       PTCLDY    34   7  32 N15       30.17R WCI  24
RALEIGH        CLEAR     40   9  28 VRB6      30.15R

$$

ANZ530>537-290100-
MARINE OBSERVATIONS

STATION/POSITION TIME  TEMP    WIND        PRES
                       AIR SEA DIR/SP/G
                 (UTC) (F)     (DEG/KT/KT) (MB)
THOMAS PT LIGHT  0000                        N/A
BALT KEY BRIDGE  2300   33     300/ 22/ 26 1018.7R
COVE POINT       2300   32     330/ 10/ 14 1019.3R
LEWISETTA        2300   35 46              1020.0R
SOLOMONS ISLAND  2300      44                N/A
PINEY POINT      2300          340/ 24/ 27   N/A

$$



USA.gov is the U.S. government's official web portal to all federal, state and local government web resources and services.